Regional Weather Roundup
Issued by NWS Newport/Morehead, NC

Current Version | Previous Version | Text Only | Print | Product List | Glossary On
Versions: 1 2 3 4 5 6 7 8 9 10 11 12 13 14 15 16 17 18 19 20 21 22 23 24 25 26 27 28 29 30 31 32 33 34 35 36 37 38 39 40 41 42 43 44 45 46 47 48 49 50
000 ASUS42 KMHX 242210 RWRMHX WEATHER ROUNDUP FOR EASTERN NORTH CAROLINA NATIONAL WEATHER SERVICE NEWPORT/MOREHEAD CITY NC 600 PM EDT FRI OCT 24 2014 NOTE: "FAIR" INDICATES FEW OR NO CLOUDS BELOW 12,000 FEET WITH NO SIGNIFICANT WEATHER AND/OR OBSTRUCTIONS TO VISIBILITY NCZ015>017-031-032-045>047-102-103-242300- NORTH COAST CITY SKY/WX TMP DP RH WIND PRES REMARKS EDENTON CLEAR 64 49 57 W3 29.94S ELIZABETH CITY CLEAR 63 48 58 W7 29.92S KITTY HAWK CLEAR 63 50 63 W3 29.91S MANTEO CLEAR 63 51 65 NW3 29.92S $$ NCZ045>047-081-094-103-104-242300- CENTRAL COAST CITY SKY/WX TMP DP RH WIND PRES REMARKS FRISCO PTCLDY 63 53 70 NW7 29.92F SWANQUARTER N/A 64 N/A N/A W3 29.91R $$ NCZ095-097-098-100-101-242300- SOUTHERN COAST CITY SKY/WX TMP DP RH WIND PRES REMARKS BEAUFORT CLEAR 66 51 58 W8 29.95R CEDAR ISLAND N/A 66 N/A N/A W7 29.97S JACKSONVILLE CLEAR 66 50 56 CALM 29.95S PINEY ISLAND PTCLDY 68 52 56 W6 29.94R WILMINGTON CLEAR 68 48 48 NW5 29.96R $$ NCZ011>013-027>030-043-044-078>080-089-090>093-098-242300- COASTAL PLAIN CITY SKY/WX TMP DP RH WIND PRES REMARKS AHOSKIE MOCLDY 61 50 67 CALM 29.95R CLINTON MOCLDY 63 54 72 CALM 29.97R ELIZABETHTOWN PTCLDY 68 47 45 CALM 29.96S GOLDSBORO PTCLDY 66 52 59 W3 29.94S GREENVILLE PTCLDY 66 50 55 CALM 29.97S HAVELOCK CLEAR 67 48 50 W5 29.96R KENANSVILLE CLEAR 60 51 72 CALM 29.97S KINSTON PTCLDY 66 48 52 CALM 29.96S NEW BERN CLEAR 68 49 50 NW3 29.96R RICHLANDS CLEAR 66 48 52 CALM 29.96S ROCKY MOUNT MOCLDY 62 51 67 CALM 29.96R WASHINGTON PTCLDY 66 49 54 CALM 29.95R WHITEVILLE CLEAR 64 52 66 CALM 29.97R $$ AMZ130-135-150-152-154-156-158-170-250-252-270-ANZ085-086-088-633-658-670-242300- MARINE OBSERVATIONS STATION/POSITION TIME TEMP WIND PRES WAVE SWELL AIR SEA DIR/SP/G HT/PER HT/PER (UTC) (F) (DEG/KT/KT) (MB) (FT/S) (FT/S) CHESAPEAKE LIGHT 2100 64 290/ 13/ 14 1013.2 64 E VA BEACH 2200 63 67 300/ 14/ 17 1012.0 5/ 8 3/ 8 DUCK 2200 65 66 270/ 3/ 4 1012.2 2 E DUCK 2200 N/A 4/11 2/11 10 NE DUCK 2200 67 N/A 4/ 6 2/11 OREGON INLET 2200 64 63 280/ 5/ 7 1012.9 13E OREGON INLT 2200 69 N/A 5/ 7 2/11 HATTERAS CG 2200 65 64 310/ 12/ 13 1013.6 DIAMOND BUOY 2200 65 310/ 12/ 16 1013.4 3/ 6 2/ 6 17 S OCRACOKE 2100 VRB 12/ 14 1013.6 CAPE LOOKOUT 2100 66 270/ 9/ 11 1013.9 BEAUFORT LAB 2200 67 67 250/ 5/ 7 1013.4 30 SE NEW RIVER 2200 67 75 300/ 6/ 10 1014.0 3/11 3/11 5 SE WRIGHTSVLE 2200 65 72 250/ 2/ 4 N/A 225 S CAPE HAT 2106 73 77 320/ 8/ 10 1014.0 5/10 5/10 41 SE CHARLESTON 2200 68 78 330/ 6/ 8 1014.6 3/10 3/10 $$

USA.gov is the U.S. government's official web portal to all federal, state and local government web resources and services.